sat.trackr.live / text

‹ back to catalog

STARLINK-4132

NORAD 53252 · 2022-086L

PAYLOAD ACTIVE UNKNOWN

§ Identity

Operator
Country
US
Launch date
2022-07-24
Launch site
AFETR
Launch vehicle
Mass (kg)
RCS (m²)

Purposes: comms

External: N2YO · Heavens-Above · Gunter

§ Orbital elements

Epoch: 2026-05-25T05:07:02.546688Z

Period
95.44 min
Inclination
53.2127°
Eccentricity
0.0001111
Mean motion
15.08834520 rev/d
Perigee alt
539.0 km
Apogee alt
540.5 km
Semi-major
6,917.9 km
B*
1.7217e-5
RAAN
210.5448°
Arg perigee
89.7291°
Mean anomaly
270.3828°
Rev number
21,263

§ Raw data

STARLINK-41321 53252U 22086L   26145.21322392 -.00000014  00000+0  17217-4 0  99942 53252  53.2127 210.5448 0001111  89.7291 270.3828 15.08834520212633

JSON: /api/v1/satellites/53252 · /tle

For live sub-satellite position, see the globe view (requires WebGL).

§ Visibility from observer

Set your observer location to see the next 7 days of passes ≥ 10°. The values pass through the URL so the page stays shareable.

No JS? Fill the form by hand. The geolocation button needs JavaScript.